FW5810 Weather Reports


time (UTC)temp
F
wind
direction
speed
knots
gust
knots
rain 1hr
in
rain 24hr
in
rain mn
in
humidity
%
barometer
mb
20260503040959 37 348 0.0 0.0 0.00 0.00 0.00 89 1017.7
20260503040456 37 348 0.0 0.0 0.00 0.00 0.00 90 1017.7
20260503035953 37 348 0.0 0.0 0.00 0.12 0.12 90 1017.7
20260503035450 37 348 0.0 0.0 0.00 0.12 0.12 90 1017.5
20260503034948 37 348 0.0 0.9 0.00 0.12 0.12 89 1017.7
20260503034445 37 348 0.0 0.9 0.00 0.12 0.12 89 1017.6
20260503033942 37 349 0.0 0.0 0.00 0.12 0.12 88 1017.6
20260503033439 37 349 0.0 0.0 0.00 0.12 0.12 89 1017.7
20260503032937 37 349 0.0 0.0 0.00 0.12 0.12 88 1017.8
20260503032435 37 349 0.0 0.0 0.00 0.12 0.12 88 1017.6
20260503031932 37 349 0.0 0.0 0.00 0.12 0.12 88 1017.9
20260503031430 37 349 0.0 0.0 0.00 0.12 0.12 88 1017.9
20260503030926 37 349 0.0 0.0 0.00 0.12 0.12 88 1017.9
20260503030423 37 349 0.0 0.0 0.00 0.12 0.12 88 1017.7
20260503025920 37 349 0.0 0.0 0.00 0.12 0.12 88 1017.9
20260503025417 37 349 0.0 0.0 0.00 0.12 0.12 86 1018.0
20260503024914 37 349 0.0 0.0 0.00 0.12 0.12 86 1018.0
20260503024411 37 349 0.0 0.0 0.00 0.12 0.12 85 1017.9
20260503023908 37 349 0.0 0.0 0.00 0.12 0.12 85 1018.0
20260503023405 37 349 0.0 0.0 0.00 0.12 0.12 84 1018.1
20260503022902 37 349 0.0 0.0 0.00 0.12 0.12 84 1018.1
20260503022356 37 349 0.0 0.0 0.00 0.12 0.12 84 1018.1
20260503021852 37 349 0.0 0.0 0.00 0.12 0.12 84 1018.0
20260503021349 37 349 0.0 0.0 0.00 0.12 0.12 84 1017.9
20260503020846 36 349 0.0 0.0 0.00 0.12 0.12 83 1018.1
20260503020344 36 349 0.0 0.0 0.00 0.12 0.12 83 1018.0
20260503015840 36 349 0.0 0.0 0.00 0.12 0.12 83 1018.1
20260503015337 37 349 0.0 0.0 0.00 0.12 0.12 81 1018.0
20260503014833 37 349 0.0 0.0 0.00 0.12 0.12 81 1018.0
20260503014331 37 349 0.0 0.0 0.00 0.12 0.12 81 1017.8
20260503013828 37 349 0.0 0.0 0.00 0.12 0.12 81 1018.1
20260503013325 37 349 0.0 0.0 0.00 0.12 0.12 79 1017.9
20260503012822 37 349 0.0 0.0 0.00 0.12 0.12 80 1017.9
20260503012320 37 349 0.0 0.0 0.00 0.12 0.12 80 1017.8
20260503011816 37 349 0.0 0.0 0.00 0.12 0.12 78 1018.0
20260503011313 37 349 0.0 0.0 0.00 0.12 0.12 76 1017.9
20260503010810 37 349 0.0 0.0 0.00 0.12 0.12 76 1017.9
20260503010307 37 349 0.0 0.0 0.00 0.12 0.12 75 1017.9
20260503005804 38 349 0.0 0.0 0.00 0.12 0.12 75 1017.9
20260503005304 38 349 0.0 0.0 0.00 0.12 0.12 73 1018.0
20260503004757 38 349 0.0 0.0 0.00 0.12 0.12 70 1017.8
20260503004255 39 349 0.0 0.0 0.00 0.12 0.12 67 1017.8
20260503003752 39 349 0.0 0.0 0.00 0.12 0.12 68 1017.9
20260503003249 40 348 0.0 0.0 0.00 0.12 0.12 64 1017.5
20260503002746 40 348 0.0 0.0 0.00 0.12 0.12 63 1017.6
20260503002243 41 348 0.0 0.0 0.00 0.12 0.12 60 1017.8
20260503001739 41 348 0.9 0.9 0.00 0.12 0.12 58 1017.6
20260503001235 41 347 0.9 0.9 0.00 0.12 0.12 58 1017.7
20260503000734 41 347 0.9 0.9 0.00 0.12 0.12 58 1017.7
20260503000233 41 347 0.9 0.9 0.00 0.12 0.12 58 1017.9
20260502235727 41 347 0.9 0.9 0.00 0.12 0.12 58 1017.6
20260502235225 41 334 2.6 6.1 0.00 0.12 0.12 56 1017.6
20260502234721 41 345 1.7 2.6 0.00 0.12 0.12 57 1017.6
20260502234219 41 342 2.6 2.6 0.00 0.12 0.12 57 1017.6
20260502233714 41 323 4.3 6.1 0.00 0.12 0.12 55 1017.5
20260502233211 42 21 3.5 7.0 0.00 0.12 0.12 56 1017.6
20260502232707 42 339 1.7 4.3 0.00 0.12 0.12 57 1017.7
20260502232205 42 336 2.6 3.5 0.00 0.12 0.12 57 1017.7
20260502231701 42 3 1.7 2.6 0.00 0.12 0.12 57 1017.6
20260502231159 42 350 0.9 4.3 0.00 0.12 0.12 55 1017.7
20260502230657 42 335 5.2 7.0 0.00 0.12 0.12 54 1017.6
20260502230155 42 3 4.3 9.6 0.00 0.12 0.12 54 1017.5
20260502225651 42 359 2.6 4.3 0.00 0.12 0.12 54 1017.6
20260502225149 42 4 2.6 6.1 0.00 0.12 0.12 54 1017.6
20260502224644 42 14 6.1 12.2 0.00 0.12 0.12 53 1017.4
20260502224141 42 14 6.1 12.2 0.00 0.12 0.12 53 1017.4
20260502223639 43 329 3.5 13.0 0.00 0.12 0.12 53 1017.5
20260502223137 43 299 6.1 7.0 0.00 0.12 0.12 51 1017.4
20260502222634 43 22 5.2 8.7 0.00 0.12 0.12 51 1017.5
20260502222131 43 349 2.6 12.2 0.00 0.12 0.12 50 1017.4
20260502221626 43 352 3.5 6.1 0.00 0.12 0.12 48 1017.6
20260502221124 43 319 4.3 8.7 0.00 0.12 0.12 46 1017.3
20260502220620 43 311 5.2 6.1 0.00 0.12 0.12 48 1017.4
20260502220116 43 320 2.6 8.7 0.00 0.12 0.12 46 1017.5
20260502215614 43 346 2.6 3.5 0.00 0.12 0.12 47 1017.4
20260502215110 43 310 0.9 4.3 0.00 0.12 0.12 48 1017.3
20260502214607 43 358 6.1 8.7 0.00 0.12 0.12 46 1017.4
20260502214104 43 343 5.2 7.0 0.00 0.12 0.12 46 1017.3
20260502213602 43 354 4.3 8.7 0.00 0.12 0.12 46 1017.2
20260502213059 43 351 7.0 8.7 0.00 0.12 0.12 47 1017.3
20260502212558 43 317 1.7 8.7 0.00 0.12 0.12 46 1017.1
20260502212055 44 317 2.6 4.3 0.00 0.12 0.12 48 1017.1
20260502211550 43 300 1.7 3.5 0.00 0.12 0.12 50 1017.1
20260502211048 44 358 6.1 9.6 0.00 0.12 0.12 46 1017.1
20260502210545 44 323 3.5 8.7 0.00 0.12 0.12 45 1017.0
20260502210042 44 343 2.6 7.0 0.00 0.12 0.12 47 1016.9
20260502205538 44 25 7.8 12.2 0.00 0.12 0.12 44 1016.9
20260502205036 44 285 2.6 8.7 0.00 0.12 0.12 48 1016.9
20260502204532 44 320 4.3 7.0 0.00 0.12 0.12 44 1017.1
20260502204030 45 348 3.5 6.1 0.00 0.12 0.12 43 1017.0
20260502203527 46 310 2.6 3.5 0.00 0.12 0.12 46 1016.9
20260502203024 45 327 2.6 2.6 0.00 0.12 0.12 52 1016.7
20260502202520 45 347 0.9 0.9 0.00 0.12 0.12 49 1016.9
20260502202019 44 292 0.9 3.5 0.00 0.12 0.12 50 1017.0
20260502201514 44 29 2.6 3.5 0.00 0.12 0.12 49 1017.1
20260502201011 44 6 4.3 7.0 0.00 0.12 0.12 49 1017.1
20260502200507 44 333 3.5 4.3 0.00 0.12 0.12 52 1017.3
20260502200005 44 347 1.7 4.3 0.00 0.12 0.12 53 1017.4
20260502195502 44 347 1.7 4.3 0.00 0.12 0.12 53 1017.4
20260502194958 43 304 3.5 9.6 0.00 0.12 0.12 53 1017.3
20260502194455 43 6 5.2 6.1 0.00 0.12 0.12 55 1017.3
20260502193950 43 348 2.6 3.5 0.00 0.12 0.12 55 1017.4
20260502193448 43 335 7.0 8.7 0.00 0.12 0.12 56 1017.5
20260502192944 43 34 0.9 4.3 0.00 0.12 0.12 58 1017.6
20260502192441 43 33 4.3 6.1 0.00 0.12 0.12 57 1017.5
20260502191937 44 294 2.6 4.3 0.00 0.12 0.12 59 1017.6
20260502191435 44 306 2.6 4.3 0.00 0.12 0.12 59 1017.5
20260502190933 44 314 2.6 3.5 0.00 0.12 0.12 61 1017.7
20260502190430 43 324 2.6 2.6 0.00 0.12 0.12 61 1017.6
20260502185926 44 23 0.9 3.5 0.00 0.12 0.12 58 1017.6
20260502185421 43 293 1.7 3.5 0.00 0.12 0.12 61 1017.9
20260502184919 43 37 4.3 4.3 0.00 0.12 0.12 60 1017.7
20260502184414 44 24 5.2 6.1 0.00 0.12 0.12 61 1018.0
20260502183911 43 54 0.9 0.9 0.00 0.12 0.12 57 1018.0
20260502183407 44 36 2.6 4.3 0.00 0.12 0.12 57 1018.0
20260502182902 42 28 3.5 4.3 0.00 0.12 0.12 63 1017.9
20260502182358 42 329 2.6 4.3 0.00 0.12 0.12 62 1018.0
20260502181854 42 62 0.0 0.9 0.00 0.12 0.12 63 1018.1
20260502181353 42 54 1.7 3.5 0.00 0.12 0.12 64 1018.2
20260502180851 41 328 3.5 8.7 0.00 0.12 0.12 65 1018.1
20260502180348 41 10 5.2 7.0 0.00 0.12 0.12 65 1018.3
20260502170306 39 350 4.3 9.6 0.00 0.12 0.12 80 1018.2
20260502164255 39 9 4.3 4.3 0.00 0.12 0.12 80 1018.4
20260502163750 39 7 4.3 4.3 0.00 0.12 0.12 79 1018.4
20260502163247 39 33 5.2 7.0 0.00 0.12 0.12 80 1018.4
20260502162744 38 97 1.7 2.6 0.00 0.12 0.12 87 1018.2
20260502162240 38 354 2.6 4.3 0.00 0.12 0.12 80 1018.3
20260502161737 38 24 2.6 4.3 0.00 0.12 0.12 82 1018.4
20260502161233 38 31 1.7 4.3 0.00 0.12 0.12 84 1018.3
20260502160732 38 36 6.1 7.0 0.00 0.12 0.12 85 1018.4
20260502160231 38 21 2.6 6.1 0.00 0.12 0.12 86 1018.4
20260502152154 37 351 1.7 2.6 0.00 0.12 0.12 87 1018.1
20260502151652 37 355 0.9 4.3 0.00 0.12 0.12 88 1018.2
20260502151149 37 11 6.1 6.1 0.00 0.12 0.12 86 1018.2
20260502150647 37 20 2.6 4.3 0.00 0.12 0.12 86 1018.1
20260502150143 37 18 3.5 4.3 0.00 0.12 0.12 86 1018.0
20260502140106 36 31 1.7 4.3 0.00 0.12 0.12 90 1017.6
20260502130532 36 51 6.1 9.6 0.00 0.12 0.12 93 1017.0
20260502123515 36 22 6.1 7.0 0.00 0.12 0.12 94 1017.2
20260502123011 36 1 7.0 7.0 0.00 0.12 0.12 94 1017.3
20260502122508 36 62 4.3 7.0 0.00 0.12 0.12 94 1017.3
20260502122005 36 13 5.2 6.1 0.00 0.12 0.12 94 1017.2
20260502121503 36 27 2.6 4.3 0.00 0.12 0.12 94 1017.0
20260502121000 36 24 0.9 2.6 0.00 0.12 0.12 94 1017.2
20260502120456 36 21 2.6 3.5 0.00 0.12 0.12 94 1017.2
20260502115450 36 34 4.3 6.1 0.00 0.12 0.12 95 1017.0
20260502114946 36 34 1.7 2.6 0.00 0.12 0.12 95 1016.9
20260502114443 36 359 4.3 4.3 0.00 0.12 0.12 95 1016.7
20260502113941 36 23 1.7 3.5 0.00 0.12 0.12 95 1016.7
20260502113438 36 20 0.9 2.6 0.00 0.12 0.12 95 1016.9
20260502112937 36 33 0.9 2.6 0.00 0.12 0.12 95 1016.9
20260502112434 36 29 0.9 2.6 0.00 0.12 0.12 95 1017.0
20260502111931 36 43 1.7 3.5 0.00 0.12 0.12 94 1017.0
20260502111428 36 23 1.7 2.6 0.00 0.12 0.12 95 1016.9
20260502110926 36 20 1.7 2.6 0.00 0.12 0.12 95 1016.7
20260502110423 36 22 2.6 4.3 0.00 0.12 0.12 95 1016.6
20260502105920 36 27 2.6 4.3 0.00 0.12 0.12 95 1016.6
20260502105417 36 13 2.6 4.3 0.00 0.12 0.12 95 1016.5
20260502104915 36 39 0.9 4.3 0.00 0.12 0.12 95 1016.6
20260502104407 36 14 1.7 3.5 0.00 0.12 0.12 95 1016.5
20260502103904 36 14 0.0 2.6 0.00 0.12 0.12 96 1016.6
20260502103402 37 2 4.3 4.3 0.00 0.12 0.12 95 1016.4
20260502102858 37 21 2.6 3.5 0.00 0.12 0.12 95 1016.3
20260502102355 37 9 5.2 6.1 0.00 0.12 0.12 95 1016.5
20260502101852 37 22 1.7 2.6 0.00 0.12 0.12 95 1016.4
20260502101350 37 26 2.6 2.6 0.00 0.12 0.12 95 1016.3
20260502100848 37 14 3.5 6.1 0.00 0.12 0.12 95 1016.2
20260502100348 37 39 3.5 4.3 0.05 0.12 0.12 96 1016.3
20260502091321 37 67 0.0 0.9 0.07 0.11 0.11 96 1016.0
20260502090819 37 68 0.9 0.9 0.00 0.10 0.10 96 1016.0
20260502090315 37 57 0.9 0.9 0.00 0.10 0.10 96 1015.9
20260502071211 39 298 0.0 0.0 0.05 0.03 0.03 97 1016.2
20260502070709 39 298 0.0 0.9 0.05 0.03 0.03 97 1016.4
20260502070206 39 354 0.0 0.9 0.07 0.02 0.02 97 1016.3
20260502065704 39 354 0.0 0.9 0.07 0.02 0.02 97 1016.3
20260502065202 39 355 0.0 0.9 0.00 0.01 0.01 97 1016.2
20260502064701 39 355 0.9 0.9 0.00 0.01 0.01 97 1016.4
20260502064157 39 355 0.0 0.0 0.00 0.01 0.01 97 1016.4
20260502063655 39 355 0.0 0.0 0.00 0.01 0.01 97 1016.4
20260502063153 39 355 0.0 0.9 0.00 0.01 0.01 97 1016.3
20260502062649 38 354 1.7 2.6 0.05 0.01 0.01 97 1016.6
20260502062147 38 355 0.0 0.0 0.05 0.01 0.01 97 1016.5
20260502061645 38 355 0.0 0.0 0.00 0.00 0.00 97 1016.5
20260502061143 38 355 0.0 0.0 0.00 0.00 0.00 97 1016.5
20260502060643 38 355 0.0 0.0 0.00 0.00 0.00 97 1016.5
20260502060140 38 355 0.0 0.0 0.00 0.00 0.00 97 1016.7
20260502055637 38 355 0.0 0.0 0.00 0.00 0.00 97 1016.7
20260502055135 38 355 0.0 0.0 0.00 0.00 0.00 97 1016.6
20260502054634 38 355 0.0 0.0 0.00 0.00 0.00 97 1016.6
20260502054131 38 355 0.0 0.0 0.00 0.00 0.00 97 1016.7
20260502053628 38 355 0.0 0.0 0.00 0.00 0.00 97 1016.9
20260502053125 38 355 0.0 0.0 0.00 0.00 0.00 97 1017.0
20260502052623 38 355 0.0 0.0 0.00 0.00 0.00 97 1017.0
20260502052121 38 355 0.0 0.0 0.00 0.00 0.00 97 1017.2
20260502051619 38 355 0.0 0.0 0.00 0.00 0.00 97 1017.1
20260502051117 38 355 0.0 0.0 0.00 0.00 0.00 97 1016.9
20260502050613 38 355 0.0 0.0 0.00 0.00 0.00 97 1016.9
20260502050110 38 355 0.0 0.0 0.00 0.00 0.00 97 1016.9
20260502045606 38 355 0.9 0.9 0.00 0.00 0.00 97 1017.0
20260502045104 37 355 0.0 0.0 0.00 0.00 0.00 97 1017.1
20260502044600 37 355 0.0 0.0 0.00 0.00 0.00 97 1017.2
20260502044057 37 355 0.0 0.0 0.00 0.00 0.00 97 1017.2
20260502043554 37 355 0.0 0.0 0.00 0.00 0.00 97 1017.1
20260502043050 37 355 0.0 0.0 0.00 0.00 0.00 97 1017.3
20260502042545 37 355 0.0 0.0 0.00 0.00 0.00 97 1017.2
20260502042043 37 355 0.0 0.0 0.00 0.00 0.00 97 1017.2
20260502041541 37 355 0.0 0.0 0.00 0.00 0.00 97 1017.3